This is the latest recevied weather packets stored in our database for station/object LU3HGB-WX. If no packets are shown the sender has not sent any weather packets the latest 10 day(s).
| Time | Temp. | Humidity | Pressure | Rain* | Wind** | Luminosity | Snow |
|---|---|---|---|---|---|---|---|
| 1777754259 | 16.11° C | 53% | 1025 hPa | 0 mm | - | 83 W/m² | - |
| 1777753959 | 16.11° C | 50% | 1024 hPa | 0 mm | - | 82 W/m² | - |
| 1777753660 | 16.67° C | 48% | 1024 hPa | 0 mm | - | 88 W/m² | - |
| 1777753359 | 16.67° C | 47% | 1024 hPa | 0 mm | - | 120 W/m² | - |
| 1777753059 | 16.67° C | 46% | 1024 hPa | 0 mm | - | 136 W/m² | - |
| 1777752760 | 16.67° C | 47% | 1024 hPa | 0 mm | - | 158 W/m² | - |
| 1777752459 | 16.67° C | 44% | 1024 hPa | 0 mm | - | 193 W/m² | - |
| 1777752160 | 16.67° C | 46% | 1025 hPa | 0 mm | - | 193 W/m² | - |
| 1777751859 | 16.11° C | 44% | 1025 hPa | 0 mm | - | 234 W/m² | - |
| 1777751559 | 16.11° C | 47% | 1025 hPa | 0 mm | - | 196 W/m² | - |
| 1777751259 | 16.11° C | 49% | 1025 hPa | 0 mm | - | 169 W/m² | - |
| 1777750959 | 16.11° C | 49% | 1025 hPa | 0 mm | - | 162 W/m² | - |
| 1777750659 | 16.11° C | 50% | 1025 hPa | 0 mm | - | 158 W/m² | - |
| 1777750359 | 16.11° C | 49% | 1025 hPa | 0 mm | - | 149 W/m² | - |
| 1777750060 | 16.11° C | 50% | 1025 hPa | 0 mm | - | 158 W/m² | - |
| 1777749759 | 16.11° C | 48% | 1025 hPa | 0 mm | - | 154 W/m² | - |
| 1777749459 | 16.11° C | 47% | 1025 hPa | 0 mm | - | 144 W/m² | - |
| 1777749160 | 16.11° C | 45% | 1025 hPa | 0 mm | - | 139 W/m² | - |
| 1777748859 | 16.11° C | 48% | 1025 hPa | 0 mm | - | 139 W/m² | - |
| 1777748559 | 16.11° C | 44% | 1025 hPa | 0 mm | - | 147 W/m² | - |
| 1777748259 | 16.11° C | 45% | 1025 hPa | 0 mm | - | 153 W/m² | - |
| 1777747959 | 16.11° C | 48% | 1025 hPa | 0 mm | - | 148 W/m² | - |
| 1777747659 | 16.11° C | 42% | 1025 hPa | 0 mm | - | 145 W/m² | - |
| 1777747359 | 16.11° C | 45% | 1025 hPa | 0 mm | - | 143 W/m² | - |
| 1777747060 | 16.11° C | 44% | 1025 hPa | 0 mm | - | 153 W/m² | - |
* Rain latest hour (hover to see other rain measurements)
** Current wind speed in m/s (hover to see current wind gust speed)